Location: Rio Negrinho
(26.2394°S, 49.4999°W)
Time: 21:03:41
(UTC+00:00)

Cosmos 1844 - Pass Details

Date: 03 October 2020
Orbit: 824 x 866 km, 70.9° (Epoch: 20 October)

Event Time Altitude Azimuth Distance (km) Brightness Sun altitude
Rises 08:12:49 0° 337° (NNW) 3,366 6.5 -10.2°
Reaches altitude 10° 08:15:14 10° 335° (NNW) 2,445 5.8 -9.7°
Maximum altitude 08:20:50 71° 251° (WSW) 898 3.7 -8.4°
Drops below altitude 10° 08:26:34 10° 167° (SSE) 2,501 6.5 -7.1°
Sets 08:29:04 0° 164° (SSE) 3,449 7.2 -6.6°
